[[{"header":{"parameterUnit":"m.s-1","parameterCategory":1,"la1":30.2991,"la2":30.254,"lo1":-89.0895,"lo2":-89.0444,"dy":0.0017,"dx":0.0017,"nx":28,"ny":28,"refTime":"2024-03-07T03:00:00:Z","depth":0,"parameterNumber":2,"parameterNumberName":"U-component_of_WINDS"},"data":[0,0,0,0,0,0,0,0,0,0,0,0,0,0,0,0,0,0,0,0,0,0,0,0,0,0,0,0,0,0,0,0,0,0,0,0,0,0,0,0,0,0,0,0,0,0,0,0,0,0,0,0,0,0,0,0,0,0,-4.1237,-4.1237,0,-4.126,-4.126,-4.1261,-4.117,-4.1168,-4.1165,-4.1162,-4.1186,-4.1189,-4.1192,0,0,0,0,0,0,0,0,0,0,0,0,0,-4.1114,-4.1117,-4.1237,-4.1237,-4.1237,-4.126,-4.126,-4.1261,-4.1171,-4.1168,-4.1164,-4.1161,-4.1185,-4.1188,-4.1192,0,0,0,0,0,0,0,0,0,0,0,0,0,-4.1156,-4.1118,-4.1237,-4.1195,-4.1192,-4.126,-4.126,-4.1261,-4.1171,-4.1167,-4.1163,-4.116,-4.1183,-4.1188,-4.1193,-4.1302,0,0,-4.1207,-4.1209,0,0,0,0,0,0,0,0,-4.1153,-4.116,-4.1201,-4.1198,-4.1194,-4.1208,-4.1226,-4.1274,-4.1172,-4.1179,-4.1162,-4.1158,-4.1196,-4.12,-4.1213,-4.1303,-4.1304,-4.1207,-4.121,-4.1212,-4.1213,0,0,0,0,0,0,0,-4.1151,-4.1159,-4.1246,-4.1202,-4.1198,-4.1175,-4.1177,-4.1234,-4.121,-4.1178,-4.1172,-4.1176,-4.1194,-4.1209,-4.1213,-4.1304,-4.1207,-4.1211,-4.1214,-4.1216,-4.1485,-4.149,0,0,0,0,0,0,-4.1153,-4.1157,-4.1245,-4.1246,-4.1164,-4.1181,-4.1182,-4.1208,-4.1209,-4.1205,-4.1179,-4.1171,-4.1203,-4.1207,-4.1213,-4.1341,-4.1212,-4.1216,-4.1219,-4.1481,-4.1486,-4.1491,0,0,0,0,0,0,-4.1151,-4.1162,-4.1244,-4.12,-4.1209,-4.1187,-4.1216,-4.121,-4.1225,-4.121,-4.1205,-4.1199,-4.12,-4.1207,-4.1281,-4.134,-4.1219,-4.1223,-4.1476,-4.1483,-4.1489,-4.1597,0,0,0,0,0,0,-4.1148,-4.1162,-4.1203,-4.1202,-4.1211,-4.1311,-4.122,-4.1214,-4.1233,-4.1224,-4.1227,-4.1224,-4.1197,-4.1274,-4.1285,-4.1345,-4.1226,-4.147,-4.1479,-4.1487,-4.1588,-4.1607,-4.1623,0,0,0,0,0,-4.1144,-4.1232,-4.1205,-4.1216,-4.1262,-4.1315,-4.132,-4.1288,-4.1239,-4.128,-4.127,-4.1223,-4.1333,-4.1282,-4.1294,-4.1356,-4.1466,-4.1477,-4.1486,-4.1581,-4.1603,-4.1622,0,0,0,0,0,0,-4.124,-4.1231,-4.1201,-4.1292,-4.1305,-4.1299,-4.135,-4.1313,-4.134,-4.133,-4.1289,-4.129,-4.1371,-4.1371,-4.1315,-4.1462,-4.1391,-4.1404,-4.1459,-4.148,-4.1497,-4.1495,-4.123,0,0,0,0,0,-4.1272,-4.1315,-4.1305,-4.1386,-4.1394,-4.1372,-4.1393,-4.1368,-4.1379,-4.1384,-4.138,-4.1393,-4.143,-4.1455,-4.1489,-4.1589,-4.1588,-4.1637,-4.1654,-4.1669,-4.1679,-4.1733,-4.1754,-4.1523,-4.1523,-4.1523,0,0,-4.1337,-4.1338,-4.1368,-4.1405,-4.1412,-4.1458,-4.1376,-4.1428,-4.1462,-4.1392,-4.1461,-4.1459,-4.1471,-4.1559,-4.1597,-4.1561,-4.1744,-4.1681,-4.1692,-4.1695,-4.1745,-4.1767,-4.1786,-4.153,-4.1529,-4.1528,0,0,-4.148,-4.1486,-4.1554,-4.1563,-4.1575,-4.156,-4.1577,-4.1578,-4.1573,-4.1643,-4.1591,-4.1631,-4.1696,-4.1707,-4.1721,-4.1871,-4.1829,-4.1883,-4.1972,-4.2025,-4.2043,-4.2059,-4.2112,-4.2132,-4.1895,-4.1895,-4.1895,0,-4.156,-4.1628,-4.1593,-4.1649,-4.1667,-4.1607,-4.1676,-4.1686,-4.1709,-4.1723,-4.1683,-4.1764,-4.1768,-4.1857,-4.1894,-4.1908,-4.1925,-4.1882,-4.2043,-4.2059,-4.2073,-4.2123,-4.2143,-4.1901,-4.1901,-4.19,-4.1899,0,-4.1725,-4.1773,-4.1827,-4.1851,-4.1875,-4.1937,-4.1912,-4.1941,-4.1915,-4.1904,-4.1976,-4.1979,-4.2012,-4.2032,-4.2006,-4.2118,-4.2095,-4.205,-4.1977,-4.2102,-4.2148,-4.2168,-4.1911,-4.1908,-4.1906,-4.1905,0,0,-4.1927,-4.1933,-4.1953,-4.1963,-4.1974,-4.201,-4.207,-4.2103,-4.2129,-4.2147,-4.2196,-4.2254,-4.2212,-4.2229,-4.2204,-4.225,-4.2369,-4.2199,-4.2198,-4.2229,-4.2492,-4.2526,-4.2548,-4.2342,-4.2345,-4.2348,-4.2491,0,-4.2067,-4.2169,-4.2141,-4.2243,-4.2287,-4.2232,-4.2284,-4.2297,-4.2289,-4.2325,-4.2316,-4.2357,-4.23,-4.2309,-4.2353,-4.2345,-4.2421,-4.2334,-4.2386,-4.2389,-4.2384,-4.2573,-4.2607,-4.2742,-4.2509,-4.2512,-4.2514,0,-4.2243,-4.2269,-4.2376,-4.238,-4.2397,-4.2445,-4.2474,-4.2509,-4.2522,-4.2514,-4.2533,-4.2499,-4.2559,-4.2488,-4.2569,-4.2511,-4.2531,-4.2531,-4.2535,-4.2537,-4.2458,-4.2579,-4.2784,-4.2804,-4.2543,-4.2541,-4.2539,0,-4.2378,-4.2441,-4.2513,-4.2524,-4.253,-4.2565,-4.257,-4.2579,-4.2601,-4.2627,-4.2641,-4.2673,-4.269,-4.2716,-4.2692,-4.2643,-4.2777,-4.2704,-4.2771,-4.2772,-4.28,-4.2799,-4.3011,-4.2816,-4.2816,-4.2816,-4.2815,0,-4.2537,-4.2604,-4.2574,-4.2618,-4.2692,-4.266,-4.2734,-4.2733,-4.2742,-4.2785,-4.274,-4.2781,-4.2748,-4.2786,-4.2768,-4.2838,-4.2847,-4.2841,-4.2835,-4.2845,-4.2845,-4.2856,-4.2845,-4.2821,-4.282,-4.2819,-4.2818,0,-4.2699,-4.2682,-4.2757,-4.2758,-4.276,-4.2815,-4.2815,-4.2857,-4.2847,-4.2902,-4.2913,-4.2897,-4.2941,-4.292,-4.2965,-4.2953,-4.3043,-4.3025,-4.3039,-4.3033,-4.3101,-4.3095,-4.3326,-4.3355,-4.3144,-4.3146,-4.3147,0,-4.2801,-4.2851,-4.2859,-4.2885,-4.2892,-4.2935,-4.2957,-4.2929,-4.2954,-4.2974,-4.3013,-4.3053,-4.3083,-4.3155,-4.3147,-4.3182,-4.3164,-4.3243,-4.3169,-4.3177,-4.3164,-4.3161,-4.3166,-4.3257,-4.326,-4.3262,-4.3263,0,-4.2982,-4.2972,-4.3006,-4.3039,-4.3068,-4.3092,-4.3112,-4.3136,-4.3107,-4.3139,-4.3183,-4.3207,-4.3253,-4.3293,-4.3324,-4.3328,-4.3292,-4.3287,-4.3304,-4.3313,-4.3319,-4.3316,-4.3078,-4.3281,-4.328,-4.3278,-4.3277,-4.3276,-4.3117,-4.3159,-4.3172,-4.3212,-4.3225,-4.3245,-4.3284,-4.3279,-4.3316,-4.3352,-4.3333,-4.3385,-4.3398,-4.3435,-4.3445,-4.3485,-4.3454,-4.3479,-4.3485,-4.3492,-4.35,-4.3314,-4.3491,-4.3491,-4.349,-4.349,-4.3489,0,-4.3295,-4.3301,-4.3339,-4.3369,-4.3401,-4.3365,-4.3386,-4.3415,-4.3461,-4.3477,-4.3508,-4.3559,-4.3598,-4.3595,-4.3631,-4.3664,-4.3648,-4.3674,-4.3671,-4.3672,-4.3527,-4.3508,-4.3687,-4.3687,-4.3687,-4.3687,-4.3686,-4.3686,-4.3391,-4.3462,-4.3453,-4.353,-4.3535,-4.3586,-4.3601,-4.3619,-4.3632,-4.3691,-4.3724,-4.3722,-4.373,-4.3767,-4.3801,-4.3799,-4.3814,-4.3847,-4.3839,-4.3702,-4.3683,-4.3664,-4.3646,-4.3851,-4.3851,-4.3981,-4.3982,-4.3983]},{"header":{"parameterUnit":"m.s-1","parameterCategory":1,"la1":30.2991,"la2":30.254,"lo1":-89.0895,"lo2":-89.0444,"dy":0.0017,"dx":0.0017,"nx":28,"ny":28,"refTime":"2024-03-07T03:00:00:Z","depth":0,"parameterNumber":3,"parameterNumberName":"V-component_of_WINDS"},"data":[0,0,0,0,0,0,0,0,0,0,0,0,0,0,0,0,0,0,0,0,0,0,0,0,0,0,0,0,0,0,0,0,0,0,0,0,0,0,0,0,0,0,0,0,0,0,0,0,0,0,0,0,0,0,0,0,0,0,1.9544,1.9544,0,1.9582,1.9583,1.9583,1.9575,1.9574,1.9573,1.9573,1.961,1.9611,1.9613,0,0,0,0,0,0,0,0,0,0,0,0,0,1.9463,1.9464,1.9544,1.9544,1.9545,1.9582,1.9583,1.9583,1.9575,1.9574,1.9573,1.9572,1.9609,1.9611,1.9613,0,0,0,0,0,0,0,0,0,0,0,0,0,1.9499,1.9465,1.9544,1.9545,1.9546,1.9582,1.9583,1.9583,1.9575,1.9574,1.9573,1.9572,1.9608,1.9611,1.9613,1.965,0,0,1.9621,1.9622,0,0,0,0,0,0,0,0,1.9497,1.9502,1.9545,1.9545,1.9546,1.9573,1.9568,1.9606,1.9575,1.9564,1.9573,1.9571,1.9598,1.9601,1.9611,1.9652,1.9653,1.9621,1.9623,1.9624,1.9624,0,0,0,0,0,0,0,1.9495,1.95,1.9559,1.9545,1.9546,1.9544,1.9548,1.9575,1.9586,1.9565,1.9564,1.9569,1.9598,1.9608,1.9612,1.9654,1.9621,1.9623,1.9625,1.9626,1.9729,1.973,0,0,0,0,0,0,1.9492,1.9498,1.9558,1.956,1.9518,1.9546,1.9551,1.9565,1.9586,1.9588,1.957,1.9568,1.9605,1.9609,1.9613,1.9659,1.9624,1.9626,1.9627,1.9728,1.9729,1.9731,0,0,0,0,0,0,1.949,1.9497,1.9556,1.9529,1.9537,1.9549,1.9565,1.9566,1.9577,1.959,1.9592,1.9578,1.9604,1.9609,1.9641,1.966,1.9627,1.9629,1.9726,1.9728,1.973,1.975,0,0,0,0,0,0,1.9488,1.9496,1.951,1.953,1.9538,1.9584,1.9566,1.9568,1.9581,1.958,1.9598,1.96,1.9604,1.9638,1.9644,1.9663,1.9631,1.9725,1.9727,1.9729,1.9747,1.9752,1.9756,0,0,0,0,0,1.9485,1.9513,1.9511,1.9518,1.9556,1.9585,1.959,1.9594,1.9583,1.9597,1.9606,1.96,1.9657,1.9641,1.9648,1.9668,1.9723,1.9726,1.9729,1.9745,1.9751,1.9756,0,0,0,0,0,0,1.9495,1.9516,1.9514,1.9549,1.9566,1.9584,1.9602,1.9599,1.9619,1.9616,1.962,1.9624,1.9657,1.9665,1.9648,1.9705,1.9688,1.9693,1.9699,1.9704,1.9708,1.9706,1.9633,0,0,0,0,0,1.9501,1.9524,1.9541,1.9571,1.958,1.959,1.9602,1.9604,1.9621,1.9628,1.9639,1.9655,1.9677,1.9691,1.9711,1.9749,1.9753,1.9766,1.977,1.9773,1.9777,1.9799,1.9806,1.974,1.974,1.974,0,0,1.9515,1.9529,1.9543,1.9574,1.9586,1.961,1.9595,1.962,1.9638,1.9631,1.9663,1.9672,1.969,1.9725,1.9742,1.9733,1.9796,1.9777,1.978,1.9782,1.9803,1.9809,1.9815,1.9742,1.9741,1.9741,0,0,1.9551,1.9564,1.9592,1.9606,1.9626,1.9633,1.9639,1.9659,1.9665,1.9697,1.9693,1.9714,1.975,1.9764,1.9776,1.9821,1.9816,1.9827,1.985,1.9871,1.9876,1.9881,1.9898,1.9904,1.9831,1.9831,1.9831,0,1.9565,1.9601,1.9606,1.9632,1.9646,1.9643,1.9671,1.9684,1.9709,1.9719,1.971,1.9758,1.977,1.981,1.9821,1.983,1.9838,1.9825,1.9875,1.988,1.9884,1.9901,1.9907,1.9832,1.9832,1.9832,1.9832,0,1.9618,1.9643,1.9663,1.9689,1.9706,1.9732,1.9742,1.9757,1.9758,1.9766,1.98,1.9814,1.9839,1.9848,1.9848,1.9888,1.9883,1.9875,1.9858,1.9892,1.9908,1.9914,1.9834,1.9834,1.9833,1.9833,0,0,1.9661,1.9692,1.9699,1.9712,1.9735,1.9755,1.9782,1.9807,1.9821,1.9839,1.9863,1.9895,1.9889,1.9902,1.9904,1.9923,1.996,1.9913,1.9913,1.9922,2.0006,2.0013,2.002,1.9957,1.9958,1.9959,2.0005,0,1.9701,1.975,1.9756,1.98,1.9824,1.9822,1.9846,1.9863,1.9871,1.9893,1.9902,1.9925,1.9914,1.9922,1.9941,1.9951,1.9977,1.9948,1.9979,1.998,1.9975,2.0028,2.0035,2.0078,2.0011,2.0012,2.0013,0,1.9753,1.9775,1.9822,1.9844,1.9854,1.9876,1.99,1.9921,1.994,1.9945,1.9962,1.9962,1.9991,1.9973,2.0013,1.9993,2.0007,2.0014,2.0015,2.0019,1.9999,2.0034,2.0091,2.0098,2.0022,2.0021,2.0021,0,1.9782,1.9822,1.9856,1.9867,1.9893,1.9909,1.992,1.9939,1.9955,1.9976,1.9986,2.001,2.0023,2.0042,2.0049,2.0035,2.0089,2.0072,2.0095,2.0095,2.0106,2.0105,2.0167,2.0113,2.0113,2.0113,2.0113,0,1.9826,1.9855,1.987,1.989,1.9923,1.993,1.9962,1.9973,1.999,2.0013,2.0012,2.0034,2.0041,2.0064,2.007,2.0103,2.0108,2.0114,2.0115,2.0114,2.0114,2.0123,2.0121,2.0115,2.0115,2.0114,2.0114,0,1.9863,1.9874,1.9911,1.9934,1.994,1.9963,1.9983,2.0003,2.0012,2.0041,2.0049,2.0062,2.009,2.0099,2.0131,2.0134,2.0174,2.0172,2.0167,2.0168,2.0191,2.0189,2.0262,2.0272,2.021,2.0211,2.0211,0,1.9891,1.9913,1.9939,1.9955,1.9968,1.9993,2.001,2.0018,2.0035,2.006,2.0078,2.0105,2.0127,2.0171,2.0184,2.0209,2.0208,2.0232,2.0212,2.0211,2.021,2.0209,2.0212,2.0236,2.0236,2.0237,2.0237,0,1.994,1.9945,1.9969,1.9996,2.0016,2.0037,2.0057,2.007,2.0081,2.01,2.0129,2.0146,2.0181,2.0208,2.0234,2.0246,2.0244,2.0244,2.0251,2.025,2.0248,2.0251,2.0179,2.0242,2.0242,2.0241,2.0241,2.0241,1.9974,1.9994,2.0017,2.0044,2.0061,2.008,2.0101,2.0114,2.0138,2.0168,2.0171,2.0202,2.0222,2.0258,2.0271,2.0295,2.0288,2.0298,2.03,2.0303,2.0306,2.0243,2.03,2.03,2.0299,2.0299,2.0299,0,2.0024,2.0038,2.0064,2.0093,2.0115,2.0113,2.0136,2.0154,2.0182,2.0202,2.0224,2.0258,2.0285,2.0301,2.0328,2.0345,2.0345,2.0352,2.0351,2.0354,2.0309,2.0301,2.0352,2.0352,2.0352,2.0352,2.0352,2.0352,2.0052,2.0088,2.0096,2.014,2.0154,2.0186,2.02,2.0218,2.0234,2.0272,2.0295,2.0306,2.0325,2.0353,2.0378,2.0382,2.0393,2.0401,2.0404,2.0362,2.0357,2.0352,2.0344,2.0403,2.0403,2.0447,2.0447,2.0448]}]]